Weather History for Atka, AK

Change the Weather History Date:

Friday, December 27, 2013

  Actual Average (PADK) Record (PADK)
Temperature  
Mean Temperature 40 °F -  
Max Temperature 44 °F 37 °F 46 °F (1949)
Min Temperature 37 °F 28 °F 14 °F (1969)
Degree Days  
Heating Degree Days 24    
Moisture  
Dew Point 35 °F    
Average Humidity 78    
Maximum Humidity 87    
Minimum Humidity 70    
Precipitation  
Precipitation 0.00 in - - ()
Sea Level Pressure  
Sea Level Pressure 29.24 in    
Wind  
Wind Speed 13 mph (NW)    
Max Wind Speed 24 mph    
Max Gust Speed 36 mph    
Visibility 10 miles    
Events      
Averages and records for this station are not official NWS values.
T = Trace of Precipitation, MM = Missing Value Source: NWS Daily Summary

Daily Weather History Graph

Daily Weather History Graph

Search for Another Location

Airport:

Trip Planner

Search our weather history database for the weather conditions in past years. The results will help you decide how hot, cold, wet, or windy it might be!

Date:

Astronomy

Dec. 27, 2013 Rise Set
Actual Time 9:46 AM HAST 5:30 PM HAST
Civil Twilight 9:04 AM HAST 6:11 PM HAST
Nautical Twilight 8:20 AM HAST 6:55 PM HAST
Astronomical Twilight 7:39 AM HAST 7:37 PM HAST
Moon 4:08 AM HAST (12/27) 2:11 PM HAST (12/27)
Length of Visible Light 9h 06m
Length of Day
7h 44m
Waning Crescent, 26% of the Moon is Illuminated
Dec 27
Waning Crescent
Jan 1
New
Jan 7
First Quarter
Jan 15
Full
Jan 23
Last Quarter

Hourly Weather History & Observations

Time (HAST) Temp. Windchill Dew Point Humidity Pressure Visibility Wind Dir Wind Speed Gust Speed Precip Events Conditions
12:16 AM 42.8 °F 33.8 °F 35.6 °F 76% 29.03 in 6.0 mi ENE 21.9 mph 28.8 mph N/A   Overcast
12:36 AM 42.8 °F 33.3 °F 35.6 °F 76% 29.03 in 9.0 mi ENE 24.2 mph 28.8 mph N/A   Overcast
12:56 AM 42.8 °F 35.1 °F 35.6 °F 76% 29.04 in 9.0 mi ENE 16.1 mph 35.7 mph N/A   Overcast
1:16 AM 42.8 °F 38.0 °F 35.6 °F 76% 29.04 in 9.0 mi NE 8.1 mph 16.1 mph N/A   Overcast
1:36 AM 41.0 °F 33.5 °F 35.6 °F 81% 29.04 in 10.0 mi NE 13.8 mph - N/A   Overcast
1:56 AM 42.8 °F 36.2 °F 33.8 °F 70% 29.05 in 10.0 mi NE 12.7 mph - N/A   Mostly Cloudy
2:16 AM 41.0 °F 33.5 °F 33.8 °F 76% 29.05 in 9.0 mi NE 13.8 mph 17.3 mph N/A   Overcast
2:36 AM 41.0 °F 33.9 °F 33.8 °F 76% 29.06 in 8.0 mi NE 12.7 mph 17.3 mph N/A   Overcast
2:56 AM 41.0 °F 37.1 °F 33.8 °F 76% 29.06 in 10.0 mi NW 5.8 mph - N/A   Overcast
3:16 AM 41.0 °F 38.0 °F 33.8 °F 76% 29.06 in 10.0 mi WNW 4.6 mph - N/A   Overcast
3:36 AM 42.8 °F 37.5 °F 33.8 °F 70% 29.06 in 10.0 mi West 9.2 mph - N/A   Overcast
3:56 AM 42.8 °F 38.6 °F 33.8 °F 70% 29.07 in 10.0 mi West 6.9 mph - N/A   Overcast
4:16 AM 41.0 °F 35.2 °F 33.8 °F 76% 29.07 in 10.0 mi NW 9.2 mph - N/A   Overcast
4:36 AM 41.0 °F 33.5 °F 33.8 °F 76% 29.07 in 10.0 mi WNW 13.8 mph 24.2 mph N/A   Overcast
4:56 AM 39.2 °F 30.8 °F 33.8 °F 81% 29.07 in 10.0 mi NW 15.0 mph 18.4 mph N/A   Overcast
5:16 AM 39.2 °F 30.5 °F 33.8 °F 81% 29.07 in 10.0 mi NW 16.1 mph - N/A   Overcast
5:36 AM 39.2 °F 30.8 °F 33.8 °F 81% 29.08 in 10.0 mi NW 15.0 mph - N/A   Overcast
5:56 AM 39.2 °F 31.2 °F 35.6 °F 87% 29.08 in 10.0 mi WNW 13.8 mph 19.6 mph N/A   Overcast
6:16 AM 41.0 °F 33.1 °F 35.6 °F 81% 29.09 in 10.0 mi WNW 15.0 mph 20.7 mph N/A   Overcast
6:36 AM 41.0 °F 32.8 °F 35.6 °F 81% 29.09 in 10.0 mi NW 16.1 mph 23.0 mph N/A   Overcast
6:56 AM 41.0 °F 33.1 °F 35.6 °F 81% 29.09 in 10.0 mi NW 15.0 mph 25.3 mph N/A   Overcast
7:16 AM 41.0 °F 32.2 °F 35.6 °F 81% 29.09 in 9.0 mi NW 18.4 mph 23.0 mph N/A   Overcast
7:36 AM 41.0 °F 32.5 °F 35.6 °F 81% 29.10 in 8.0 mi NW 17.3 mph 23.0 mph N/A   Overcast
7:56 AM 41.0 °F 32.2 °F 35.6 °F 81% 29.10 in 10.0 mi NW 18.4 mph 24.2 mph N/A   Overcast
8:16 AM 41.0 °F 33.5 °F 35.6 °F 81% 29.11 in 10.0 mi NW 13.8 mph - N/A   Overcast
8:36 AM 41.0 °F 34.3 °F 35.6 °F 81% 29.11 in 10.0 mi NW 11.5 mph - N/A   Overcast
8:56 AM 41.0 °F 33.9 °F 35.6 °F 81% 29.12 in 10.0 mi West 12.7 mph - N/A   Mostly Cloudy
9:16 AM 41.0 °F 33.1 °F 35.6 °F 81% 29.13 in 10.0 mi WNW 15.0 mph - N/A   Overcast
9:36 AM 42.8 °F 35.8 °F 35.6 °F 76% 29.14 in 10.0 mi NW 13.8 mph 19.6 mph N/A   Overcast
9:56 AM 42.8 °F 39.3 °F 35.6 °F 76% 29.15 in 10.0 mi WNW 5.8 mph - N/A   Mostly Cloudy
10:16 AM 41.0 °F - 33.8 °F 76% 29.16 in 10.0 mi Calm Calm - N/A   Mostly Cloudy
10:36 AM 42.8 °F 35.4 °F 35.6 °F 76% 29.17 in 10.0 mi South 15.0 mph 18.4 mph N/A   Scattered Clouds
10:56 AM 42.8 °F 37.0 °F 37.4 °F 81% 29.18 in 10.0 mi South 10.4 mph - N/A   Overcast
11:16 AM 42.8 °F 38.6 °F 37.4 °F 81% 29.20 in 10.0 mi ESE 6.9 mph - N/A   Mostly Cloudy
11:36 AM 42.8 °F 39.3 °F 35.6 °F 76% 29.22 in 10.0 mi SSW 5.8 mph - N/A   Overcast
11:56 AM 42.8 °F 36.6 °F 37.4 °F 81% 29.23 in 10.0 mi ESE 11.5 mph 23.0 mph N/A   Overcast
12:16 PM 42.8 °F 40.1 °F 37.4 °F 81% 29.24 in 9.0 mi East 4.6 mph - N/A   Overcast
12:36 PM 42.8 °F 38.0 °F 37.4 °F 81% 29.25 in 10.0 mi East 8.1 mph - N/A   Mostly Cloudy
12:56 PM 42.8 °F 39.3 °F 37.4 °F 81% 29.25 in 10.0 mi East 5.8 mph - N/A   Clear
1:16 PM 44.6 °F - 35.6 °F 71% 29.26 in 10.0 mi Calm Calm - N/A   Clear
1:36 PM 44.6 °F 39.7 °F 35.6 °F 71% 29.27 in 10.0 mi ENE 9.2 mph - N/A   Partly Cloudy
1:56 PM 44.6 °F 43.1 °F 35.6 °F 71% 29.28 in 10.0 mi ENE 3.5 mph - N/A   Scattered Clouds
2:16 PM 42.8 °F 36.6 °F 35.6 °F 76% 29.28 in 10.0 mi West 11.5 mph - N/A   Scattered Clouds
2:36 PM 42.8 °F 38.0 °F 35.6 °F 76% 29.29 in 10.0 mi West 8.1 mph - N/A   Scattered Clouds
2:56 PM 42.8 °F 37.5 °F 35.6 °F 76% 29.30 in 10.0 mi West 9.2 mph - N/A   Unknown
3:16 PM 42.8 °F 37.5 °F 35.6 °F 76% 29.31 in 10.0 mi West 9.2 mph - N/A   Mostly Cloudy
3:36 PM 42.8 °F 38.6 °F 35.6 °F 76% 29.32 in 10.0 mi West 6.9 mph - N/A   Overcast
3:56 PM 42.8 °F 38.6 °F 35.6 °F 76% 29.32 in 10.0 mi West 6.9 mph - N/A   Mostly Cloudy
4:16 PM 42.8 °F 38.6 °F 35.6 °F 76% 29.33 in 10.0 mi NW 6.9 mph - N/A   Scattered Clouds
4:36 PM 42.8 °F 37.0 °F 35.6 °F 76% 29.34 in 10.0 mi NW 10.4 mph - N/A   Mostly Cloudy
4:56 PM 42.8 °F 35.4 °F 35.6 °F 76% 29.35 in 10.0 mi NW 15.0 mph 18.4 mph N/A   Overcast
5:16 PM 42.8 °F 35.8 °F 35.6 °F 76% 29.36 in 10.0 mi WNW 13.8 mph 19.6 mph N/A   Overcast
5:36 PM 41.0 °F 34.7 °F 33.8 °F 76% 29.38 in 10.0 mi North 10.4 mph - N/A   Overcast
5:56 PM 42.8 °F - 35.6 °F 76% 29.39 in 10.0 mi Calm Calm - N/A   Overcast
6:16 PM 41.0 °F 37.1 °F 33.8 °F 76% 29.39 in 10.0 mi SSW 5.8 mph - N/A   Mostly Cloudy
6:36 PM 41.0 °F - 35.6 °F 81% 29.41 in 10.0 mi Calm Calm - N/A   Overcast
6:56 PM 39.2 °F - 33.8 °F 81% 29.42 in 10.0 mi Calm Calm - N/A   Mostly Cloudy
7:16 PM 41.0 °F 34.3 °F 33.8 °F 76% 29.42 in 10.0 mi NW 11.5 mph - N/A   Overcast
7:36 PM 39.2 °F 31.6 °F 33.8 °F 81% 29.44 in 10.0 mi NW 12.7 mph 19.6 mph N/A   Mostly Cloudy
7:56 PM 39.2 °F 31.2 °F 33.8 °F 81% 29.45 in 10.0 mi NW 13.8 mph 18.4 mph N/A   Overcast
8:16 PM 39.2 °F 31.6 °F 33.8 °F 81% 29.47 in 10.0 mi NNW 12.7 mph 21.9 mph N/A   Mostly Cloudy
8:36 PM 39.2 °F 30.8 °F 33.8 °F 81% 29.47 in 10.0 mi NW 15.0 mph 23.0 mph N/A   Mostly Cloudy
8:56 PM 39.2 °F 30.2 °F 33.8 °F 81% 29.48 in 10.0 mi WNW 17.3 mph 23.0 mph N/A   Overcast
9:16 PM 39.2 °F 29.3 °F 33.8 °F 81% 29.48 in 10.0 mi NW 20.7 mph 24.2 mph N/A   Overcast
9:36 PM 39.2 °F 29.3 °F 33.8 °F 81% 29.49 in 10.0 mi NW 20.7 mph - N/A   Mostly Cloudy
9:56 PM 39.2 °F 30.2 °F 32.0 °F 75% 29.49 in 10.0 mi NW 17.3 mph - N/A   Mostly Cloudy
10:16 PM 39.2 °F 30.2 °F 32.0 °F 75% 29.51 in 10.0 mi NW 17.3 mph - N/A   Scattered Clouds
10:36 PM 39.2 °F 29.6 °F 33.8 °F 81% 29.51 in 10.0 mi WNW 19.6 mph - N/A   Partly Cloudy
10:56 PM 37.4 °F 27.5 °F 32.0 °F 81% 29.51 in 10.0 mi WNW 18.4 mph 24.2 mph N/A   Clear
11:16 PM 37.4 °F 28.2 °F 32.0 °F 81% 29.52 in 10.0 mi WNW 16.1 mph 24.2 mph N/A   Clear
11:36 PM 37.4 °F 28.9 °F 30.2 °F 75% 29.53 in 10.0 mi NW 13.8 mph 18.4 mph N/A   Clear
11:56 PM 37.4 °F 28.5 °F 30.2 °F 75% 29.54 in 10.0 mi WNW 15.0 mph 24.2 mph N/A   Clear